Zurück zum Katalog

STARLINK-35862

AktivKommunikationVLEO
NORAD 66628·PAYLOAD·🇺🇸 United States

Gestartet Nov 23, 2025 von Vandenberg Space Force Base

Loading…

Nächste Überflüge (nächste 24 Stunden)

TLE

AktuellSource: CelesTrak SupGP

Epoche: Sep 15, 2026, 03:17 UTC

1 66628C 25271M   26258.13729167  .00063032  00000+0  18626-2 0  2580
2 66628  53.1594 335.1177 0001404  87.0931 153.6006 15.34352977    19

Verfolge STARLINK-35862 in Echtzeit mit AllMySat

Download on the App Store